This is the latest recevied weather packets stored in our database for station/object YF9UAG-16. If no packets are shown the sender has not sent any weather packets the latest 10 day(s).
| Time | Temp. | Humidity | Pressure | Rain* | Wind** | Luminosity | Snow |
|---|---|---|---|---|---|---|---|
| 1778142250 | 30.56° C | 67% | 1006 hPa | - | - | 0 W/m² | - |
| 1778141928 | 30° C | 68% | 1006 hPa | - | - | 0 W/m² | - |
| 1778141606 | 29.44° C | 75% | 1005 hPa | - | - | 0 W/m² | - |
| 1778141284 | 30° C | 69% | 1005 hPa | - | - | 0 W/m² | - |
| 1778140962 | 29.44° C | 70% | 1005 hPa | - | - | 0 W/m² | - |
| 1778140642 | 29.44° C | 72% | 1005 hPa | - | - | 0 W/m² | - |
| 1778140318 | 29.44° C | 70% | 1005 hPa | - | - | 0 W/m² | - |
| 1778139996 | 30° C | 67% | 1005 hPa | - | - | 0 W/m² | - |
| 1778139674 | 30° C | 66% | 1005 hPa | - | - | 0 W/m² | - |
| 1778139352 | 28.89° C | 64% | 1005 hPa | - | - | 0 W/m² | - |
| 1778139030 | 29.44° C | 68% | 1005 hPa | - | - | 0 W/m² | - |
| 1778138708 | 29.44° C | 66% | 1005 hPa | - | - | 0 W/m² | - |
| 1778138386 | 28.89° C | 64% | 1005 hPa | - | - | 0 W/m² | - |
| 1778138064 | 29.44° C | 66% | 1005 hPa | - | - | 0 W/m² | - |
| 1778137742 | 28.89° C | 63% | 1005 hPa | - | - | 0 W/m² | - |
| 1778137420 | 29.44° C | 64% | 1005 hPa | - | - | 0 W/m² | - |
| 1778137098 | 29.44° C | 60% | 1005 hPa | - | - | 0 W/m² | - |
| 1778136776 | 30° C | 60% | 1005 hPa | - | - | 0 W/m² | - |
| 1778136454 | 30° C | 55% | 1005 hPa | - | - | 0 W/m² | - |
| 1778136132 | 30.56° C | 53% | 1005 hPa | - | - | 0 W/m² | - |
| 1778135810 | 30° C | 48% | 1005 hPa | - | - | 0 W/m² | - |
| 1778135488 | 31.11° C | 47% | 1005 hPa | - | - | 0 W/m² | - |
| 1778135166 | 32.22° C | 47% | 1005 hPa | - | - | 0 W/m² | - |
| 1778134844 | 35.56° C | 42% | 1005 hPa | - | - | 0 W/m² | - |
| 1778134522 | 36.67° C | 39% | 1005 hPa | - | - | 0 W/m² | - |
* Rain since midnight (hover to see other rain measurements)
** Current wind speed in m/s (hover to see current wind gust speed)